User: anonymous   Login
Location: Unspecified
(0.0000°N, 0.0000°E)
Time: 03:27:47
(UTC+01:00)
Language:

BREEZE-M DEB (TANK) - Orbit

View from above orbital plane
View from above orbital plane
View from above satellite
View from above satellite

Ground track
Ground track

The orbit data is extracted from the following two-line orbital elements,

1 33374U 08044B   16336.34212649  .00000531  00000-0  14267-3 0  9998
2 33374  49.4747  62.8249 5449040 325.7279   8.9019  4.86574747144366
Epoch (UTC): 01 December 2016 08:12:39
Eccentricity: 0.5449040
inclination: 49.4747°
perigee height: 316 km
apogee height: 16348 km
right ascension of ascending node: 62.8249°
argument of perigee: 325.7279°
revolutions per day: 4.86574747
mean anomaly at epoch: 8.9019°
orbit number at epoch: 14436

The dashed part of the orbit path shows where the satellite is in the earth's shadow,  

DLR